Meteopurmerend
purmerend
Purmerend - Baaienwijk



My webcam  My webcam


waarschuwing voor Onweer Meer informatie blitzortung!


Regen radar Meer informatie rain snow radar


Bezoek onze andere website:

CandyAppleRed WebdesignWebdesign Purmerend Candy Apple Red

MeteopurmerendBlog

Template documentation
and downloads



Onweer van: 26-07-2021 13:00 tot: 21:00 waarschuwing voor: Onweer niveau: Geel info button
Enkele onweersbuien, lokaal met hagel en veel neerslag in korte tijd.Kans op blikseminslag, hagel en veel neerslag in korte tijd.Verkeer en buitenactiviteiten kunnen hinder ondervinden.Mijd open water en open gebied, schuil niet onder bomen.Volg weerberichten en waarschuwingen.

15 daagse weersverwachting Mönchengladbach (DE)

  • Overzicht
  • Per uur
  • 15 dagen
  • Extra
  • Vergelijk
  • Kaarten
  • Dagkaart
  • Meer »
  • Info
  • Statistieken
  • Directe link
    Temp 6h Neerslag Wind  
 05:53     21:29    Daglengte: 15:36 Vandaag
20:00
20°
0.3 mm
4
 05:54     21:28    Daglengte: 15:34 Morgen
02:00
17°
 
3
08:00
17°
 
3
14:00
23°
 
4
20:00
19°
3.2 mm
4
 05:56     21:27    Daglengte: 15:31 Woensdag 28 Jul
02:00
17°
0.9 mm
3
08:00
17°
 
4
14:00
21°
3.3 mm
7
20:00
20°
5.6 mm
5
 05:57     21:25    Daglengte: 15:28 Donderdag 29 Jul
02:00
16°
7.2 mm
5
08:00
15°
1.3 mm
6
Locatie info
Region: Nordrhein-Westfalen
Latitude: 51.1955°N
Longitude: 6.4427°E
57 masl
Postcode: 41061
Temp/Neerslag /Baro Onweer/Dauwpunt
    Temp Baro 1h Neerslag Dauwpunt Wind UV Bewolking  
 05:53     21:29    Daglengte: 15:36 Vandaag
16:00
23°
1010.1 hPa
78%
12.9°
5
Windvlaag: 6.1 m/s
16%
17:00
22°
1010.2 hPa
78%
12.4°
5
Windvlaag: 6 m/s
33%
18:00
22°
1010.3 hPa
78%
12.1°
4
Windvlaag: 5.7 m/s
30%
19:00
22°
1010.1 hPa
80%
12.0°
4
Windvlaag: 5.6 m/s
40%
20:00
20°
1010.4 hPa 0.3 mm
75%
11.6°
4
Windvlaag: 4.1 m/s
61%
21:00
19°
1010.8 hPa
79%
12.7°
3
Windvlaag: 4 m/s
46%
22:00
18°
1011.3 hPa
78%
14.0°
3
Windvlaag: 4.3 m/s
57%
23:00
18°
1011.5 hPa
25%
13.6°
3
Windvlaag: 4 m/s
47%
 05:54     21:28    Daglengte: 15:34 Morgen
00:00
18°
1011.7 hPa
17%
13.6°
3
Windvlaag: 3.9 m/s
67%
01:00
17°
1011.6 hPa
19%
14.0°
3
Windvlaag: 4.2 m/s
41%
02:00
17°
1011.8 hPa
59%
14.9°
3
Windvlaag: 4.2 m/s
40%
03:00
17°
1011.9 hPa
25%
15.4°
3
Windvlaag: 4.8 m/s
44%
04:00
17°
1011.8 hPa
14%
15.5°
3
Windvlaag: 5.6 m/s
19%
05:00
16°
1011.8 hPa
17%
15.6°
3
Windvlaag: 4.8 m/s
56%
06:00
16°
1011.6 hPa
15%
15.3°
3
Windvlaag: 5 m/s
56%
07:00
16°
1012.0 hPa
14%
15.1°
3
Windvlaag: 4.3 m/s
80%
08:00
17°
1012.2 hPa
20%
14.5°
3
Windvlaag: 4.7 m/s
59%
09:00
18°
1012.1 hPa
14%
13.9°
3
Windvlaag: 5.6 m/s
70%
10:00
19°
1012.1 hPa
15%
14.0°
3
Windvlaag: 5.4 m/s
77%
11:00
21°
1011.9 hPa
14%
13.8°
4
Windvlaag: 6.3 m/s
70%
12:00
22°
1011.7 hPa
14%
13.7°
4
Windvlaag: 6.9 m/s
40%
13:00
23°
1011.3 hPa
68%
14.8°
4
Windvlaag: 6.8 m/s
35%
14:00
23°
1011.0 hPa
82%
14.2°
4
Windvlaag: 6.4 m/s
71%
15:00
22°
1010.8 hPa 0.6 mm
82%
12.3°
5
Windvlaag: 6.4 m/s
68%
16:00
22°
1010.7 hPa 0.6 mm
82%
14.8°
5
Windvlaag: 8.1 m/s
69%
17:00
21°
1010.6 hPa 1.0 mm
82%
13.7°
4
Windvlaag: 4.6 m/s
85%
18:00
21°
1010.5 hPa
80%
15.7°
3
Windvlaag: 3.5 m/s
60%
19:00
20°
1010.5 hPa
82%
15.9°
4
Windvlaag: 3.4 m/s
63%
20:00
19°
1010.5 hPa 1.0 mm
82%
15.6°
4
Windvlaag: 5.8 m/s
86%
21:00
19°
1010.6 hPa 0.9 mm
82%
15.6°
3
Windvlaag: 6.2 m/s
54%
22:00
18°
1010.7 hPa
82%
15.3°
3
Windvlaag: 4.5 m/s
68%
23:00
18°
1010.8 hPa
81%
15.1°
3
Windvlaag: 4.9 m/s
60%
 05:56     21:27    Daglengte: 15:31 Woensdag 28 Jul
00:00
17°
1010.8 hPa
27%
15.1°
3
Windvlaag: 5.8 m/s
35%
01:00
17°
1010.6 hPa
14%
15.3°
3
Windvlaag: 6.7 m/s
54%
02:00
17°
1010.4 hPa
23%
15.0°
3
Windvlaag: 6.7 m/s
56%
03:00
17°
1010.2 hPa
25%
14.6°
3
Windvlaag: 6.1 m/s
52%
04:00
16°
1009.9 hPa
55%
14.7°
3
Windvlaag: 6.6 m/s
73%
05:00
16°
1009.9 hPa
70%
15.1°
3
Windvlaag: 6.9 m/s
34%
06:00
16°
1010.0 hPa
17%
14.8°
3
Windvlaag: 6.3 m/s
32%
07:00
16°
1010.1 hPa
22%
14.9°
3
Windvlaag: 6.8 m/s
53%
08:00
17°
1010.0 hPa
43%
14.6°
4
Windvlaag: 6.8 m/s
50%
09:00
18°
1010.1 hPa
78%
14.0°
5
Windvlaag: 7.8 m/s
61%
10:00
18°
1010.3 hPa
18%
12.7°
6
Windvlaag: 8.8 m/s
72%
11:00
19°
1010.0 hPa
35%
12.4°
5
Windvlaag: 8.9 m/s
49%
12:00
20°
1009.8 hPa
35%
10.9°
6
Windvlaag: 9 m/s
30%
13:00
21°
1009.8 hPa 1.7 mm
27%
9.5°
7
Windvlaag: 10.3 m/s
50%
14:00
21°
1009.6 hPa 1.6 mm
22%
10.1°
7
Windvlaag: 10.7 m/s
49%
15:00
21°
1009.6 hPa
22%
11.5°
7
Windvlaag: 9.6 m/s
36%
16:00
21°
1009.8 hPa 1.6 mm
25%
11.3°
7
Windvlaag: 8.3 m/s
66%
17:00
21°
1009.9 hPa
85%
11.2°
6
Windvlaag: 7.7 m/s
12%
18:00
20°
1010.0 hPa 1.0 mm
99%
10.5°
6
Windvlaag: 7.2 m/s
76%
19:00
20°
1009.7 hPa 1.3 mm
94%
10.2°
5
Windvlaag: 7.3 m/s
21%
20:00
20°
1009.7 hPa 1.6 mm
24%
10.5°
5
Windvlaag: 6.1 m/s
67%
21:00
19°
1009.9 hPa 1.4 mm
42%
10.0°
4
Windvlaag: 5.2 m/s
64%
22:00
18°
1010.0 hPa 1.5 mm
22%
10.6°
3
Windvlaag: 5.1 m/s
78%
23:00
17°
1009.8 hPa 1.4 mm
21%
11.4°
3
Windvlaag: 6 m/s
58%
 05:57     21:25    Daglengte: 15:28 Donderdag 29 Jul
00:00
17°
1009.6 hPa
22%
11.0°
3
Windvlaag: 6.6 m/s
40%
01:00
17°
1009.4 hPa 1.6 mm
21%
11.9°
4
Windvlaag: 7.7 m/s
79%
02:00
16°
1009.4 hPa 1.4 mm
21%
13.7°
5
Windvlaag: 8.6 m/s
91%
03:00
16°
1009.2 hPa
21%
11.6°
5
Windvlaag: 8.1 m/s
16%
04:00
15°
1009.3 hPa
21%
10.6°
5
Windvlaag: 9 m/s
81%
05:00
15°
1009.3 hPa 1.3 mm
21%
11.3°
5
Windvlaag: 9.9 m/s
79%
06:00
15°
1009.3 hPa
21%
11.0°
5
Windvlaag: 9.6 m/s
72%
07:00
15°
1009.3 hPa
21%
10.3°
6
Windvlaag: 10.1 m/s
59%
08:00
15°
1009.4 hPa
21%
10.1°
6
Windvlaag: 9.6 m/s
53%
09:00
16°
1010.9 hPa
21%
9.5°
6
Windvlaag: 11.7 m/s
50%
10:00
17°
1011.0 hPa
21%
8.5°
6
Windvlaag: 12.3 m/s
56%
11:00
18°
1011.2 hPa
21%
8.1°
6
Windvlaag: 12.7 m/s
57%
12:00
19°
1011.3 hPa
21%
7.8°
6
Windvlaag: 13.2 m/s
74%
13:00
19°
1011.4 hPa
21%
7.5°
6
Windvlaag: 12.7 m/s
65%
14:00
20°
1011.3 hPa
21%
6.1°
7
Windvlaag: 12.9 m/s
64%
Temp/Neerslag /Baro Onweer/Dauwpunt
    Temp Baro Neerslag Dauwpunt Wind Bewolking  
 05:53     21:29    Daglengte: 15:36 Vandaag
17:00
22°
1010.2 hPa   12.4°
5
33%
20:00
20°
1010.4 hPa 0.3 mm 11.6°
4
61%
23:00
18°
1011.5 hPa   13.6°
3
47%
 05:54     21:28    Daglengte: 15:34 Morgen
02:00
17°
1011.8 hPa   14.9°
3
40%
05:00
16°
1011.8 hPa   15.6°
3
56%
08:00
17°
1012.2 hPa   14.5°
3
59%
11:00
21°
1011.9 hPa   13.8°
4
70%
14:00
23°
1011.0 hPa   14.2°
4
71%
17:00
21°
1010.6 hPa 2.1 mm 13.7°
4
85%
20:00
19°
1010.5 hPa 1.0 mm 15.6°
4
86%
23:00
18°
1010.8 hPa 0.9 mm 15.1°
3
60%
 05:56     21:27    Daglengte: 15:31 Woensdag 28 Jul
02:00
17°
1010.4 hPa   15.0°
3
56%
05:00
16°
1009.9 hPa   15.1°
3
34%
08:00
17°
1010.0 hPa   14.6°
4
50%
11:00
19°
1010.0 hPa   12.4°
5
49%
14:00
21°
1009.6 hPa 3.3 mm 10.1°
7
49%
17:00
21°
1009.9 hPa 1.6 mm 11.2°
6
12%
20:00
20°
1009.7 hPa 4.0 mm 10.5°
5
67%
23:00
17°
1009.8 hPa 4.2 mm 11.4°
3
58%
 05:57     21:25    Daglengte: 15:28 Donderdag 29 Jul
02:00
16°
1009.4 hPa 2.9 mm 13.7°
5
91%
05:00
15°
1009.3 hPa 1.3 mm 11.3°
5
79%
08:00
15°
1009.4 hPa   10.1°
6
53%
11:00
18°
1011.2 hPa   8.1°
6
57%
14:00
20°
1011.3 hPa   6.1°
7
64%
17:00
20°
1011.9 hPa 11.1 mm 11.1°
8
1%
20:00
18°
1011.8 hPa 11.1 mm 11.9°
5
0%
23:00
14°
1012.4 hPa 11.1 mm 10.4°
4
0%
 05:59     21:23    Daglengte: 15:24 Vrijdag 30 Jul
02:00
13°
1012.3 hPa 11.1 mm 9.7°
4
1%
05:00
12°
1012.1 hPa 11.1 mm 9.1°
4
0%
08:00
14°
1012.3 hPa 11.1 mm 10.2°
4
0%
11:00
18°
1012.1 hPa 11.1 mm 10.5°
4
1%
14:00
22°
1010.9 hPa 11.1 mm 11.2°
4
1%
17:00
23°
1009.6 hPa 11.1 mm 12.6°
4
0%
20:00
22°
1008.3 hPa 11.2 mm 13.9°
1
1%
23:00
18°
1008.2 hPa 11.4 mm 13.7°
3
1%
 06:00     21:22    Daglengte: 15:22 Zaterdag 31 Jul
02:00
16°
1007.8 hPa 12.3 mm 14.5°
3
1%
05:00
15°
1007.2 hPa 13.0 mm 14.1°
3
1%
08:00
16°
1007.2 hPa 13.1 mm 14.0°
4
1%
11:00
20°
1006.4 hPa 13.2 mm 11.4°
7
0%
14:00
18°
1006.0 hPa 14.1 mm 12.9°
9
0%
17:00
19°
1005.5 hPa 15.3 mm 13.3°
10
1%
20:00
18°
1006.5 hPa 15.8 mm 12.8°
7
0%
23:00
14°
1008.4 hPa 15.8 mm 11.9°
4
0%
 06:02     21:20    Daglengte: 15:18 Zondag 01 Aug
02:00
13°
1008.4 hPa 15.8 mm 11.8°
4
0%
05:00
13°
1007.9 hPa 15.8 mm 12.1°
4
0%
08:00
14°
1007.7 hPa 15.9 mm 11.8°
5
0%
11:00
18°
1007.3 hPa 16.0 mm 12.8°
6
1%
14:00
18°
1007.6 hPa 17.0 mm 13.4°
7
1%
17:00
19°
1008.4 hPa 18.6 mm 11.4°
7
1%
20:00
17°
1009.3 hPa 18.7 mm 10.3°
5
1%
23:00
13°
1011.8 hPa 18.9 mm 10.6°
3
0%
 06:03     21:19    Daglengte: 15:16 Maandag 02 Aug
02:00
11°
1013.4 hPa 18.9 mm 10.2°
3
0%
05:00
10°
1014.1 hPa 18.9 mm 8.9°
3
0%
08:00
12°
1015.3 hPa 18.9 mm 9.8°
4
0%
11:00
16°
1016.0 hPa 19.2 mm 10.2°
5
1%
14:00
18°
1015.9 hPa 38.7 mm 9.2°
5
1%
20:00
18°
1015.5 hPa 39.2 mm 10.5°
2
1%
 06:05     21:17    Daglengte: 15:12 Dinsdag 03 Aug
02:00
14°
1015.9 hPa 39.2 mm 8.7°
2
1%
08:00
13°
1016.6 hPa 39.3 mm 11.0°
4
1%
14:00
21°
1015.8 hPa 39.3 mm 9.3°
4
0%
20:00
19°
1015.2 hPa 39.3 mm 12.0°
3
1%
 06:06     21:15    Daglengte: 15:09 Woensdag 04 Aug
02:00
14°
1014.6 hPa 39.3 mm 9.9°
4
1%
08:00
15°
1012.9 hPa 39.3 mm 10.3°
3
1%
14:00
23°
1010.8 hPa 39.3 mm 12.2°
8
1%
20:00
20°
1010.1 hPa 39.4 mm 14.0°
6
1%
 06:08     21:14    Daglengte: 15:06 Donderdag 05 Aug
02:00
14°
1010.7 hPa 39.5 mm 11.8°
5
0%
08:00
15°
1009.7 hPa 39.5 mm 12.1°
5
1%
14:00
21°
1010.7 hPa 0.9 mm 12.5°
4
80%
20:00
19°
1009.3 hPa 1.3 mm 13.1°
2
81%
 06:09     21:12    Daglengte: 15:03 Vrijdag 06 Aug
02:00
16°
1009.0 hPa 0.9 mm 12.2°
2
75%
08:00
15°
1008.4 hPa 0.7 mm 12.0°
3
77%
14:00
20°
1008.2 hPa 1.3 mm 12.2°
4
71%
20:00
19°
1007.5 hPa 1.4 mm 12.6°
3
71%
 06:11     21:10    Daglengte: 14:59 Zaterdag 07 Aug
02:00
15°
1008.2 hPa 0.9 mm 11.2°
4
55%
08:00
15°
1008.3 hPa 0.8 mm 11.5°
4
68%
14:00
19°
1008.3 hPa 2.0 mm 12.2°
6
71%
20:00
18°
1008.9 hPa 2.8 mm 12.3°
5
71%
 06:12     21:08    Daglengte: 14:56 Zondag 08 Aug
02:00
14°
1010.5 hPa 1.1 mm 11.3°
4
65%
08:00
14°
1010.6 hPa 1.6 mm 11.5°
4
69%
14:00
19°
1011.3 hPa 2.1 mm 12.2°
6
72%
20:00
18°
1012.0 hPa 1.6 mm 12.2°
4
69%
 06:14     21:06    Daglengte: 14:52 Maandag 09 Aug
02:00
14°
1013.4 hPa 0.7 mm 11.1°
4
66%
08:00
14°
1013.9 hPa 0.6 mm 11.1°
4
63%
14:00
20°
1014.4 hPa 0.8 mm 11.7°
5
60%
20:00
18°
1014.7 hPa 1.1 mm 12.0°
3
71%
 06:15     21:04    Daglengte: 14:49 Dinsdag 10 Aug
02:00
14°
1015.9 hPa 0.6 mm 10.9°
2
59%
08:00
14°
1016.0 hPa 0.6 mm 11.3°
3
57%
14:00
20°
1016.3 hPa 0.9 mm 12.1°
4
60%
  CAPE Lifted Index Hail Supercell Tornado SRH 3km CL BTM PRES CL TOP PRES Swiss DWD icon SMHI TS
 05:53     21:29    Daglengte: 15:36 Vandaag
16:00 395 J/kg -1.6 K 0 % 0 % 0 % 0 m²/s² 0 0 -0.67 2
17:00 407 J/kg -1.4 K 0 % 0 % 0 % 0 m²/s² 0 0 -0.26 3
18:00 569 J/kg -1.9 K 0 % 0 % 0 % 0 m²/s² 0 0 -0.85 3
19:00 482 J/kg -1.6 K 0 % 0 % 0 % 0 m²/s² 0 0 -0.52 80
20:00 630 J/kg -2.3 K 0 % 0 % 0 % 0 m²/s² 0 0 -1.4 3
21:00 626 J/kg -2.3 K 0 % 0 % 0 % 0 m²/s² 0 0 -1.61 80
22:00 410 J/kg -1.8 K 0 % 0 % 0 % 0 m²/s² 0 0 -1.2 80
23:00 196 J/kg -0.8 K 0 % 0 % 0 % 0 m²/s² 0 0 -0.47 3
 05:54     21:28    Daglengte: 15:34 Morgen
00:00 0 J/kg -0.1 K 0 % 0 % 0 % 0 m²/s² 0 0 0.98 3
01:00 68 J/kg -1.3 K 0 % 0 % 0 % 0 m²/s² 0 0 -0.1 3
02:00 153 J/kg -1.4 K 0 % 0 % 0 % 0 m²/s² 0 0 -0.47 3
03:00 152 J/kg -1.5 K 0 % 0 % 0 % 0 m²/s² 0 0 -0.15 3
04:00 28 J/kg -1.5 K 0 % 0 % 0 % 0 m²/s² 0 0 0.78 2
05:00 0 J/kg -1.9 K 0 % 0 % 0 % 0 m²/s² 0 0 0.5 3
06:00 0 J/kg -1.2 K 0 % 0 % 0 % 0 m²/s² 0 0 1.74 3
07:00 0 J/kg -0.7 K 0 % 0 % 0 % 0 m²/s² 0 0 2.66 3
08:00 58 J/kg -1.5 K 0 % 0 % 0 % 0 m²/s² 0 0 2.25 3
09:00 268 J/kg -1.9 K 0 % 0 % 0 % 0 m²/s² 0 0 2.15 3
10:00 552 J/kg -3.2 K 0 % 0 % 0 % 0 m²/s² 0 0 0.34 3
11:00 644 J/kg -2.9 K 0 % 0 % 0 % 0 m²/s² 0 0 -1.16 3
12:00 491 J/kg -1.9 K 0 % 0 % 0 % 0 m²/s² 0 0 -1.33 3
13:00 449 J/kg -2.1 K 0 % 0 % 0 % 0 m²/s² 0 0 -1.5 2
14:00 465 J/kg -2.2 K 0 % 0 % 0 % 0 m²/s² 0 0 -1.69 3
15:00 549 J/kg -2.1 K 0 % 0 % 0 % 0 m²/s² 0 0 -1.68 3
16:00 14 J/kg 0.7 K 0 % 0 % 0 % 0 m²/s² 0 0 0.88 3
17:00 0 J/kg 1.8 K 0 % 0 % 0 % 0 m²/s² 0 0 2.22 80
18:00 29 J/kg 1.5 K 0 % 0 % 0 % 0 m²/s² 0 0 1.8 3
19:00 28 J/kg 1.3 K 0 % 0 % 0 % 0 m²/s² 0 0 1.78 3
20:00 134 J/kg -0.1 K 0 % 0 % 0 % 0 m²/s² 0 0 0.11 61
21:00 181 J/kg -0.3 K 0 % 0 % 0 % 0 m²/s² 0 0 0.03 61
22:00 160 J/kg -0.6 K 0 % 0 % 0 % 0 m²/s² 0 0 -0.18 3
23:00 51 J/kg 0.0 K 0 % 0 % 0 % 0 m²/s² 0 0 0.78 61
 05:56     21:27    Daglengte: 15:31 Woensdag 28 Jul
00:00 0 J/kg -0.1 K 0 % 0 % 0 % 0 m²/s² 0 0 0.8 3
01:00 0 J/kg -0.7 K 0 % 0 % 0 % 0 m²/s² 0 0 -0.19 3
02:00 0 J/kg -0.9 K 0 % 0 % 0 % 0 m²/s² 0 0 0.24 3
03:00 0 J/kg 0.0 K 0 % 0 % 0 % 0 m²/s² 0 0 1.56 3
04:00 0 J/kg 0.3 K 0 % 0 % 0 % 0 m²/s² 0 0 1.8 3
05:00 0 J/kg 0.7 K 0 % 0 % 0 % 0 m²/s² 0 0 2.2 3
06:00 0 J/kg 0.4 K 0 % 0 % 0 % 0 m²/s² 0 0 1.75 3
07:00 0 J/kg 0.5 K 0 % 0 % 0 % 0 m²/s² 0 0 1.52 3
08:00 3 J/kg 1.1 K 0 % 0 % 0 % 0 m²/s² 0 0 2.78 3
09:00 0 J/kg 1.9 K 0 % 0 % 0 % 0 m²/s² 0 0 3.82 3
10:00 10 J/kg 1.7 K 0 % 0 % 0 % 0 m²/s² 0 0 3.68 3
11:00 9 J/kg 2.1 K 0 % 0 % 0 % 0 m²/s² 0 0 4.59 3
12:00 16 J/kg 2.6 K 0 % 0 % 0 % 0 m²/s² 0 0 5.99 2
13:00 15 J/kg 2.7 K 0 % 0 % 0 % 0 m²/s² 0 0 6.36 2
14:00 45 J/kg 2.1 K 0 % 0 % 0 % 0 m²/s² 0 0 5.76 1
15:00 74 J/kg 1.3 K 0 % 0 % 0 % 0 m²/s² 0 0 4.09 2
16:00 118 J/kg 1.0 K 0 % 0 % 0 % 0 m²/s² 0 0 3.79 2
17:00 142 J/kg 0.3 K 0 % 0 % 0 % 0 m²/s² 0 0 3.48 2
18:00 103 J/kg 0.4 K 0 % 0 % 0 % 0 m²/s² 0 0 3.85 80
19:00 122 J/kg 0.4 K 0 % 0 % 0 % 0 m²/s² 0 0 3.49 80
20:00 129 J/kg 0.7 K 0 % 0 % 0 % 0 m²/s² 0 0 3.97 3
21:00 96 J/kg 2.1 K 0 % 0 % 0 % 0 m²/s² 0 0 5.19 2
22:00 109 J/kg 2.3 K 0 % 0 % 0 % 0 m²/s² 0 0 5.84 2
23:00 102 J/kg 2.6 K 0 % 0 % 0 % 0 m²/s² 0 0 5.78 2
 05:57     21:25    Daglengte: 15:28 Donderdag 29 Jul
00:00 67 J/kg 3.0 K 0 % 0 % 0 % 0 m²/s² 0 0 5.61 2
01:00 29 J/kg 3.5 K 0 % 0 % 0 % 0 m²/s² 0 0 6.77 3
02:00 16 J/kg 4.3 K 0 % 0 % 0 % 0 m²/s² 0 0 7.48 2
03:00 0 J/kg 6.5 K 0 % 0 % 0 % 0 m²/s² 0 0 8.6 1
04:00 0 J/kg 7.2 K 0 % 0 % 0 % 0 m²/s² 0 0 11.31 2
05:00 0 J/kg 8.0 K 0 % 0 % 0 % 0 m²/s² 0 0 13.49 3
06:00 5 J/kg 8.0 K 0 % 0 % 0 % 0 m²/s² 0 0 13.76 3
07:00 17 J/kg 8.6 K 0 % 0 % 0 % 0 m²/s² 0 0 14.54 3
08:00 39 J/kg 8.8 K 0 % 0 % 0 % 0 m²/s² 0 0 14.89 2
09:00 51 J/kg 9.1 K 0 % 0 % 0 % 0 m²/s² 0 0 14.56 3
10:00 51 J/kg 9.3 K 0 % 0 % 0 % 0 m²/s² 0 0 13.95 3
11:00 61 J/kg 9.4 K 0 % 0 % 0 % 0 m²/s² 0 0 15.82 3
12:00 67 J/kg 8.7 K 0 % 0 % 0 % 0 m²/s² 0 0 15.09 3
13:00 41 J/kg 8.1 K 0 % 0 % 0 % 0 m²/s² 0 0 13.77 3
14:00 16 J/kg 7.9 K 0 % 0 % 0 % 0 m²/s² 0 0 12.52 3
Temp Baro Wind Neerslag
  EWN Forecast EWN WRFDA DWD ICON FMI HIRLAM MET Norway GFS
 05:53     21:29    Daglengte: 15:36 Vandaag
17:00 22.5° 1010.2 hPa 4.6 m/s 0.0 mm 23.9° 1009.3 hPa 4.5 m/s 1.0 mm 22.2° 1010.5 hPa 4.7 m/s -1.7 mm 24.0° 1009.4 hPa 4.5 m/s 0.0 mm 21.6° 1010.5 hPa 5.8 m/s
20:00 20.2° 1010.4 hPa 3.6 m/s 0.3 mm 22.8° 1009.4 hPa 3.7 m/s 1.0 mm 19.5° 1010.5 hPa 3.5 m/s 0.4 mm 22.8° 1009.6 hPa 3.2 m/s 0.0 mm 19.6° 1010.4 hPa 4.3 m/s
23:00 17.8° 1011.5 hPa 2.7 m/s 0.0 mm 18.7° 1010.8 hPa 3.1 m/s 1.9 mm 17.5° 1011.8 hPa 2.9 m/s 0.4 mm 19.5° 1010.4 hPa 2.6 m/s 0.0 mm 16.4° 1011.2 hPa 3.7 m/s
 05:54     21:28    Daglengte: 15:34 Morgen
02:00 17.0° 1011.8 hPa 2.9 m/s 0.0 mm 17.1° 1010.8 hPa 3.6 m/s 2.1 mm 16.8° 1012.2 hPa 2.4 m/s 0.0 mm 18.2° 1010.4 hPa 3.1 m/s 0.0 mm 15.3° 1012.0 hPa 2.7 m/s
05:00 16.4° 1011.8 hPa 2.6 m/s 0.0 mm 15.6° 1010.4 hPa 2.9 m/s 2.1 mm 16.3° 1012.2 hPa 2.4 m/s 0.0 mm 16.6° 1010.7 hPa 2.2 m/s 0.0 mm 14.5° 1011.8 hPa 2.6 m/s
08:00 17.1° 1012.2 hPa 2.8 m/s 0.0 mm 17.7° 1010.5 hPa 3.1 m/s 2.1 mm 17.0° 1013.0 hPa 2.7 m/s 0.0 mm 17.5° 1010.8 hPa 2.6 m/s 0.0 mm 16.4° 1012.0 hPa 2.6 m/s
11:00 20.6° 1011.9 hPa 3.5 m/s 0.0 mm 21.9° 1010.5 hPa 3.6 m/s 2.1 mm 20.3° 1012.5 hPa 3.5 m/s 0.0 mm 22.0° 1011.1 hPa 4.1 m/s 0.0 mm 20.4° 1011.7 hPa 3.9 m/s
14:00 22.5° 1011.0 hPa 4.4 m/s 0.0 mm 23.5° 1010.4 hPa 4.0 m/s 2.1 mm 22.5° 1011.7 hPa 4.5 m/s 0.1 mm 24.1° 1010.2 hPa 4.6 m/s 0.0 mm 20.1° 1011.4 hPa 2.9 m/s
17:00 20.7° 1010.6 hPa 4.0 m/s 2.1 mm 19.4° 1010.0 hPa 1.6 m/s 6.4 mm 20.5° 1011.6 hPa 4.0 m/s 0.5 mm 23.3° 1008.7 hPa 4.3 m/s 0.0 mm 23.1° 1010.6 hPa 4.2 m/s
20:00 19.5° 1010.5 hPa 3.5 m/s 1.0 mm 20.5° 1009.6 hPa 6.2 m/s 11.0 mm 19.0° 1011.4 hPa 3.1 m/s 0.5 mm 20.6° 1009.0 hPa 4.1 m/s 0.0 mm 18.8° 1010.4 hPa 4.9 m/s
23:00 17.6° 1010.8 hPa 3.1 m/s 0.9 mm 17.9° 1009.9 hPa 3.2 m/s 11.2 mm 17.5° 1011.3 hPa 2.1 m/s 0.3 mm 18.3° 1010.3 hPa 4.2 m/s 0.0 mm 16.5° 1011.3 hPa 4.3 m/s
 05:56     21:27    Daglengte: 15:31 Woensdag 28 Jul
02:00 16.8° 1010.4 hPa 3.0 m/s 0.0 mm 16.6° 1009.1 hPa 3.1 m/s 11.2 mm 16.9° 1010.3 hPa 2.4 m/s 0.0 mm 17.0° 1010.6 hPa 2.8 m/s 0.0 mm 16.1° 1011.0 hPa 3.4 m/s
05:00 16.0° 1009.9 hPa 3.1 m/s 0.0 mm 15.8° 1008.8 hPa 4.0 m/s 11.2 mm 16.9° 1009.6 hPa 2.9 m/s 0.0 mm 15.1° 1010.7 hPa 1.7 m/s 0.0 mm 14.9° 1010.4 hPa 3.4 m/s
08:00 16.8° 1010.0 hPa 4.1 m/s 0.0 mm 16.1° 1009.3 hPa 5.0 m/s 11.2 mm 17.1° 1009.2 hPa 3.7 m/s 0.0 mm 16.9° 1011.0 hPa 4.0 m/s 0.0 mm 16.0° 1010.8 hPa 3.6 m/s
11:00 18.6° 1010.0 hPa 5.5 m/s 0.0 mm 19.5° 1009.2 hPa 5.5 m/s 11.2 mm 18.9° 1010.0 hPa 6.2 m/s 0.1 mm 17.9° 1010.8 hPa 5.9 m/s
14:00 21.2° 1009.6 hPa 7.1 m/s 3.3 mm 22.5° 1009.2 hPa 6.8 m/s 11.2 mm 21.4° 1009.7 hPa 6.8 m/s 0.0 mm 21.6° 1010.8 hPa 7.8 m/s
17:00 21.0° 1009.9 hPa 6.1 m/s 1.6 mm 22.6° 1009.1 hPa 7.1 m/s 11.2 mm 21.3° 1010.0 hPa 5.6 m/s 0.0 mm 21.0° 1010.6 hPa 6.5 m/s
20:00 19.7° 1009.7 hPa 4.6 m/s 4.0 mm 22.0° 1008.5 hPa 5.8 m/s 11.2 mm 19.7° 1009.8 hPa 3.6 m/s 0.3 mm 18.7° 1010.2 hPa 5.8 m/s
23:00 17.2° 1009.8 hPa 3.2 m/s 4.2 mm 18.5° 1008.7 hPa 2.1 m/s 11.2 mm 16.9° 1009.9 hPa 3.2 m/s 0.0 mm 15.5° 1010.1 hPa 4.2 m/s
 05:57     21:25    Daglengte: 15:28 Donderdag 29 Jul
02:00 16.3° 1009.4 hPa 4.6 m/s 2.9 mm 16.3° 1008.5 hPa 4.1 m/s 11.2 mm 16.5° 1009.9 hPa 3.7 m/s 0.0 mm 15.7° 1009.7 hPa 5.8 m/s
05:00 14.9° 1009.3 hPa 4.7 m/s 1.3 mm 15.1° 1008.5 hPa 3.8 m/s 11.4 mm 15.2° 1010.1 hPa 4.4 m/s 0.0 mm 13.9° 1010.0 hPa 6.3 m/s
08:00 15.3° 1009.4 hPa 6.3 m/s 0.0 mm 16.0° 1008.4 hPa 6.4 m/s 11.4 mm 15.4° 1011.1 hPa 5.2 m/s 0.0 mm 14.0° 1010.5 hPa 6.7 m/s
11:00 18.1° 1011.2 hPa 6.5 m/s 0.0 mm 18.6° 1008.7 hPa 7.8 m/s 11.4 mm 18.0° 1011.8 hPa 6.1 m/s 0.0 mm 17.6° 1011.7 hPa 8.7 m/s
14:00 19.8° 1011.3 hPa 6.7 m/s 0.0 mm 20.7° 1008.8 hPa 8.7 m/s 11.4 mm 19.6° 1011.9 hPa 6.2 m/s 0.0 mm 19.4° 1012.0 hPa 8.4 m/s
17:00 20.3° 1011.9 hPa 7.9 m/s 11.1 mm 20.3° 1011.9 hPa 7.9 m/s 11.1 mm
20:00 18.3° 1011.8 hPa 5.0 m/s 11.1 mm 18.3° 1011.8 hPa 5.0 m/s 11.1 mm
23:00 14.1° 1012.4 hPa 3.6 m/s 11.1 mm 14.1° 1012.4 hPa 3.6 m/s 11.1 mm
 05:59     21:23    Daglengte: 15:24 Vrijdag 30 Jul
02:00 12.5° 1012.3 hPa 3.9 m/s 11.1 mm 12.5° 1012.3 hPa 3.9 m/s 11.1 mm
05:00 11.7° 1012.1 hPa 4.0 m/s 11.1 mm 11.7° 1012.1 hPa 4.0 m/s 11.1 mm
08:00 13.9° 1012.3 hPa 4.0 m/s 11.1 mm 13.9° 1012.3 hPa 4.0 m/s 11.1 mm
11:00 18.3° 1012.1 hPa 4.3 m/s 11.1 mm 18.3° 1012.1 hPa 4.3 m/s 11.1 mm
14:00 21.7° 1010.9 hPa 4.2 m/s 11.1 mm 21.7° 1010.9 hPa 4.2 m/s 11.1 mm
17:00 23.3° 1009.6 hPa 3.5 m/s 11.1 mm 23.3° 1009.6 hPa 3.5 m/s 11.1 mm
20:00 21.9° 1008.3 hPa 0.6 m/s 11.2 mm 21.9° 1008.3 hPa 0.6 m/s 11.2 mm
23:00 17.7° 1008.2 hPa 2.7 m/s 11.4 mm 17.7° 1008.2 hPa 2.7 m/s 11.4 mm
 06:00     21:22    Daglengte: 15:22 Zaterdag 31 Jul
02:00 16.5° 1007.8 hPa 2.9 m/s 12.3 mm 16.5° 1007.8 hPa 2.9 m/s 12.3 mm
05:00 14.7° 1007.2 hPa 2.9 m/s 13.0 mm 14.7° 1007.2 hPa 2.9 m/s 13.0 mm
08:00 15.8° 1007.2 hPa 4.1 m/s 13.1 mm 15.8° 1007.2 hPa 4.1 m/s 13.1 mm
11:00 19.6° 1006.4 hPa 6.9 m/s 13.2 mm 19.6° 1006.4 hPa 6.9 m/s 13.2 mm
14:00 18.0° 1006.0 hPa 9.0 m/s 14.1 mm 18.0° 1006.0 hPa 9.0 m/s 14.1 mm
17:00 18.6° 1005.5 hPa 9.6 m/s 15.3 mm 18.6° 1005.5 hPa 9.6 m/s 15.3 mm
20:00 17.9° 1006.5 hPa 6.6 m/s 15.8 mm 17.9° 1006.5 hPa 6.6 m/s 15.8 mm
23:00 14.2° 1008.4 hPa 4.0 m/s 15.8 mm 14.2° 1008.4 hPa 4.0 m/s 15.8 mm
 06:02     21:20    Daglengte: 15:18 Zondag 01 Aug
02:00 12.7° 1008.4 hPa 3.5 m/s 15.8 mm 12.7° 1008.4 hPa 3.5 m/s 15.8 mm
05:00 12.7° 1007.9 hPa 3.8 m/s 15.8 mm 12.7° 1007.9 hPa 3.8 m/s 15.8 mm
08:00 14.3° 1007.7 hPa 4.6 m/s 15.9 mm 14.3° 1007.7 hPa 4.6 m/s 15.9 mm
11:00 17.7° 1007.3 hPa 6.5 m/s 16.0 mm 17.7° 1007.3 hPa 6.5 m/s 16.0 mm
14:00 17.8° 1007.6 hPa 6.7 m/s 17.0 mm 17.8° 1007.6 hPa 6.7 m/s 17.0 mm
17:00 18.8° 1008.4 hPa 6.9 m/s 18.6 mm 18.8° 1008.4 hPa 6.9 m/s 18.6 mm
20:00 16.9° 1009.3 hPa 4.6 m/s 18.7 mm 16.9° 1009.3 hPa 4.6 m/s 18.7 mm
23:00 12.6° 1011.8 hPa 3.4 m/s 18.9 mm 12.6° 1011.8 hPa 3.4 m/s 18.9 mm
 06:03     21:19    Daglengte: 15:16 Maandag 02 Aug
02:00 11.1° 1013.4 hPa 3.0 m/s 18.9 mm 11.1° 1013.4 hPa 3.0 m/s 18.9 mm
05:00 10.0° 1014.1 hPa 2.8 m/s 18.9 mm 10.0° 1014.1 hPa 2.8 m/s 18.9 mm
08:00 12.1° 1015.3 hPa 3.6 m/s 18.9 mm 12.1° 1015.3 hPa 3.6 m/s 18.9 mm
11:00 16.5° 1016.0 hPa 4.6 m/s 19.2 mm 16.5° 1016.0 hPa 4.6 m/s 19.2 mm
14:00 18.3° 1015.9 hPa 5.1 m/s 19.5 mm 18.3° 1015.9 hPa 5.1 m/s 19.5 mm
20:00 18.1° 1015.5 hPa 1.7 m/s 19.6 mm 18.1° 1015.5 hPa 1.7 m/s 19.6 mm
 06:05     21:17    Daglengte: 15:12 Dinsdag 03 Aug
02:00 13.6° 1015.9 hPa 1.6 m/s 19.6 mm 13.6° 1015.9 hPa 1.6 m/s 19.6 mm
08:00 13.1° 1016.6 hPa 4.1 m/s 19.7 mm 13.1° 1016.6 hPa 4.1 m/s 19.7 mm
14:00 21.4° 1015.8 hPa 4.0 m/s 19.7 mm 21.4° 1015.8 hPa 4.0 m/s 19.7 mm
20:00 19.2° 1015.2 hPa 3.0 m/s 19.7 mm 19.2° 1015.2 hPa 3.0 m/s 19.7 mm
 06:06     21:15    Daglengte: 15:09 Woensdag 04 Aug
02:00 14.5° 1014.6 hPa 3.5 m/s 19.7 mm 14.5° 1014.6 hPa 3.5 m/s 19.7 mm
08:00 15.5° 1012.9 hPa 2.9 m/s 19.7 mm 15.5° 1012.9 hPa 2.9 m/s 19.7 mm
14:00 23.2° 1010.8 hPa 7.6 m/s 19.7 mm 23.2° 1010.8 hPa 7.6 m/s 19.7 mm
20:00 20.0° 1010.1 hPa 6.2 m/s 19.7 mm 20.0° 1010.1 hPa 6.2 m/s 19.7 mm
 06:08     21:14    Daglengte: 15:06 Donderdag 05 Aug
02:00 14.5° 1010.7 hPa 4.7 m/s 19.8 mm 14.5° 1010.7 hPa 4.7 m/s 19.8 mm
08:00 14.8° 1009.7 hPa 5.4 m/s 19.8 mm 14.8° 1009.7 hPa 5.4 m/s 19.8 mm
14:00 20.7° 1010.7 hPa 3.6 m/s 0.9 mm
20:00 19.3° 1009.3 hPa 2.5 m/s 1.3 mm
 06:09     21:12    Daglengte: 15:03 Vrijdag 06 Aug
02:00 15.6° 1009.0 hPa 2.1 m/s 0.9 mm
08:00 15.3° 1008.4 hPa 3.0 m/s 0.7 mm
14:00 20.1° 1008.2 hPa 4.1 m/s 1.3 mm
20:00 18.5° 1007.5 hPa 3.2 m/s 1.4 mm
 06:11     21:10    Daglengte: 14:59 Zaterdag 07 Aug
02:00 14.6° 1008.2 hPa 3.6 m/s 0.9 mm
08:00 14.5° 1008.3 hPa 4.0 m/s 0.8 mm
14:00 19.1° 1008.3 hPa 5.5 m/s 2.0 mm
20:00 17.6° 1008.9 hPa 4.7 m/s 2.8 mm
 06:12     21:08    Daglengte: 14:56 Zondag 08 Aug
02:00 14.3° 1010.5 hPa 4.0 m/s 1.1 mm
08:00 14.3° 1010.6 hPa 4.5 m/s 1.6 mm
14:00 18.8° 1011.3 hPa 5.8 m/s 2.1 mm
20:00 17.7° 1012.0 hPa 4.0 m/s 1.6 mm
 06:14     21:06    Daglengte: 14:52 Maandag 09 Aug
02:00 14.5° 1013.4 hPa 3.6 m/s 0.7 mm
08:00 14.3° 1013.9 hPa 3.9 m/s 0.6 mm
14:00 19.6° 1014.4 hPa 5.2 m/s 0.8 mm
20:00 18.3° 1014.7 hPa 3.1 m/s 1.1 mm
 06:15     21:04    Daglengte: 14:49 Dinsdag 10 Aug
02:00 14.5° 1015.9 hPa 2.3 m/s 0.6 mm
08:00 14.3° 1016.0 hPa 3.1 m/s 0.6 mm
14:00 20.0° 1016.3 hPa 4.2 m/s 0.9 mm
FMI Hirlam - 7.5 km EWN WRFDA - 12 km DWD ICON - 7 km GFS - 25 km Basiskaart






























































Updatetijd (Europe/Amsterdam) Resolutie Lengte Stap
FMI Hirlam 14:00, 20:00, 02:00, 08:00 7.5 km 49h 1h
EWN WRFDA 10:30, 16:30, 22:30, 04:30 12 km 73h 1h
DWD ICON 11:45, 17:45, 23:45, 05:45 7 km 75h 1h
GFS 14:15, 20:15, 02:15, 08:15 25 km 237h 3h
30+ mm
25-30 mm
20-25 mm
15-20 mm
10-15 mm
6-10 mm
4-6 mm
2-4 mm
1-2 mm
0.5-1 mm
0.2-0.5 mm
0.1-0.2 mm
30+ mm
25-30 mm
20-25 mm
15-20 mm
10-15 mm
6-10 mm
4-6 mm
2-4 mm
1-2 mm
0.5-1 mm
0.2-0.5 mm
0.1-0.2 mm
Sneeuwval
Natte sneeuw
Hagel
Vorst
30+ mm
25-30 mm
20-25 mm
15-20 mm
10-15 mm
6-10 mm
4-6 mm
2-4 mm
1-2 mm
0.5-1 mm
0.2-0.5 mm
0.1-0.2 mm
Sneeuwval
Natte sneeuw
Hagel
Vorst
Onweer
50 mm
40 mm
30 mm
26 mm
22 mm
18 mm
14 mm
10 mm
9 mm
8 mm
7 mm
6 mm
5 mm
4.5 mm
4 mm
3.5 mm
3 mm
2.5 mm
2 mm
1.5 mm
1 mm
0.8 mm
0.6 mm
0.4 mm
0.2 mm
0.05 mm
35°
30°
25°
20°
15°
10°
-5°
-10°
-15°
-20°
-25°
-30°
-35°
33> m/s
29 m/s
25 m/s
21 m/s
17 m/s
14 m/s
11 m/s
8 m/s
5 m/s
3 m/s
0 m/s
2600 J/kg
2400 J/kg
2200 J/kg
2000 J/kg
1800 J/kg
1600 J/kg